Flag for Austria Weather past 2 weeks in Lustenau, Vorarlberg, Austria

Now
43 °F

Passing clouds.


Feels Like: 43 °F
Forecast: 43 / 61 °F
Wind: 2 mph from North

Location: Saint Gallen-Altenrhein

Current Time: Oct 25, 2014 at 7:59:29 AM

Latest Report: Oct 25, 2014 at 7:20 AM


Visibility: N/A

Pressure: 30.12 "Hg

Humidity: 93%

Dew point: 41 °F

Location of LustenauLocation

Historic Weather in Lustenau — Graph

°F

Lustenau temperature yesterday

Maximum temperature yesterday: 52 °F (at 2:50 PM)
Minimum temperature yesterday: 36 °F (at 5:50 AM)
Average temperature yesterday: 44 °F

Past Weeks' High & Low Weather Summary

 TemperatureHumidityPressure
High70 °F (Oct 20, 1:50 PM)100% (Oct 11, 10:20 PM)30.30 "Hg (Oct 11, 10:20 PM)
Low36 °F (Oct 24, 5:50 AM)49% (Oct 21, 4:50 PM)27.00 "Hg (Oct 17, 10:25 AM)
Average55 °F85%30.01 "Hg
* Reported Oct 10 6:20 AM — Oct 25 6:50 AM, Lustenau, Weather by CustomWeather, © 2014

Note: Actual official high and low records may vary slightly from our data, if they occured in-between our weather recording intervals... More about our weather records

Advertising

Lustenau weather history for previous 24 hours

 ConditionsComfort  
Time TempWeatherWind HumidityBarometerVisibility
6:50 AM
Oct 25
43 °FOvercast.2 mph93%30.12 "HgN/A
6:20 AM43 °FOvercast.3 mph93%30.12 "HgN/A
5:50 AM43 °FClear.3 mph93%30.12 "Hg10 mi
5:20 AM43 °FClear.2 mph93%30.12 "Hg10 mi
4:50 AM43 °FClear.1 mph93%30.12 "Hg10 mi
4:20 AM41 °FClear.2 mph93%30.12 "Hg10 mi
3:50 AM41 °FClear.5 mph100%30.09 "HgN/A
3:20 AM39 °FClear.3 mph100%30.12 "HgN/A
2:50 AM39 °FClear.1 mph93%30.12 "Hg10 mi
2:20 AM37 °FClear.2 mph93%30.12 "HgN/A
1:50 AM37 °FChilly.2 mph100%30.12 "HgN/A
1:20 AM37 °FClear.1 mph100%30.12 "Hg10 mi
12:50 AM39 °FClear.1 mph93%30.12 "HgN/A
12:20 AM39 °FClear.2 mph93%30.12 "Hg10 mi
11:50 PM
Oct 24
39 °FChilly.3 mph93%30.12 "HgN/A
11:20 PM39 °FClear.2 mph93%30.15 "HgN/A
10:50 PM41 °FClear.1 mph87%30.12 "Hg10 mi
10:20 PM41 °FClear.1 mph87%30.12 "Hg10 mi
9:50 PM41 °FPassing clouds.3 mph87%30.12 "HgN/A
9:20 PM45 °FQuite cool.7 mph81%30.12 "HgN/A
8:50 PM41 °FClear.7 mph93%30.12 "Hg10 mi
8:20 PM41 °FClear.5 mph87%30.12 "Hg10 mi
7:50 PM46 °FClear.5 mph71%30.12 "Hg10 mi
7:20 PM46 °FClear.5 mph76%30.12 "Hg10 mi
6:50 PM46 °FSunny.2 mph76%30.12 "Hg10 mi
6:20 PM50 °FSunny.1 mph67%30.12 "Hg10 mi
5:50 PM52 °FSunny.2 mph62%30.12 "Hg10 mi
5:20 PM52 °FSunny.1 mph62%30.12 "Hg10 mi
4:50 PM52 °FSunny.2 mph58%30.12 "Hg10 mi
4:20 PM52 °FPassing clouds.5 mph62%30.15 "HgN/A
3:50 PM52 °FSunny.3 mph62%30.15 "Hg10 mi
3:20 PM52 °FPassing clouds.5 mph62%30.15 "HgN/A
2:50 PM52 °FSunny.2 mph54%30.15 "Hg10 mi
2:20 PM50 °FPassing clouds.2 mph58%30.15 "HgN/A
1:50 PM50 °FPassing clouds.2 mph58%30.15 "HgN/A
1:20 PM50 °FPassing clouds.2 mph62%30.18 "HgN/A
12:50 PM48 °FPassing clouds.6 mph62%30.18 "HgN/A
12:20 PM48 °FSunny.3 mph66%30.18 "Hg10 mi
11:50 AM46 °FSunny.8 mph76%30.18 "Hg10 mi
11:20 AM46 °FPassing clouds.7 mph76%30.18 "HgN/A
10:50 AM45 °FPassing clouds.6 mph81%30.18 "HgN/A
10:20 AM45 °FSunny.6 mph81%30.21 "Hg10 mi
9:50 AM41 °FSunny.8 mph87%30.21 "Hg10 mi
9:20 AM41 °FSunny.6 mph87%30.21 "Hg10 mi
8:50 AM39 °FClear.6 mph87%30.21 "Hg10 mi
8:20 AM41 °FPassing clouds.6 mph81%30.18 "HgN/A
7:50 AM39 °FClear.3 mph87%30.18 "Hg10 mi
7:20 AM37 °FClear.6 mph93%30.18 "Hg10 mi
Weather by CustomWeather, © 2014

See weather overviewHow to use our weather pages